Regional Weather Roundup
Issued by NWS

Home | Current Version | Previous Version | Graphics & Text | Print | Product List | Glossary On
Versions: 1 2 3 4 5 6 7 8 9 10 11 12 13 14 15 16 17 18 19 20 21 22 23 24 25 26 27 28 29 30 31 32 33 34 35 36 37 38 39 40 41 42 43 44 45 46 47 48 49 50
000
ASUS45 KPSR 301310
RWRAZ

ARIZONA HOURLY REGIONAL WEATHER ROUNDUP
NATIONAL WEATHER SERVICE PHOENIX AZ
600 AM MST SAT APR 30 2016

NOTE: FAIR INDICATES FEW OR NO CLOUDS BELOW 12,000 FEET WITH NO
SIGNIFICANT WEATHER AND/OR OBSTRUCTIONS TO VISIBILITY.

AZZ001>003-036-301400-
NORTHWEST ARIZONA

CITY           SKY/WX    TMP DP  RH WIND       PRES   REMARKS
BULLHEAD CITY  PTCLDY    66  48  52 N20G25    29.69R
KINGMAN        MOCLDY    52  37  56 SE13      29.71F
$$

AZZ004>008-015-016-018-301400-
NORTH CENTRAL ARIZONA

CITY           SKY/WX    TMP DP  RH WIND       PRES   REMARKS
GRAND CANYON   CLOUDY    41  33  73 VRB3      29.84R
WILLIAMS       CLOUDY    39  34  81 S9        29.91S WCI  33
PRESCOTT       MOCLDY    49  35  58 SW7       29.81S
FLAGSTAFF      CLOUDY    36  36 100 SW6       29.86S WCI  31
PAYSON         MOCLDY    45  39  81 CALM      29.87S
PAGE           LGT RAIN  49  43  80 CALM      29.82R
$$

AZZ009>014-017-301400-
NORTHEAST ARIZONA

CITY           SKY/WX    TMP DP  RH WIND       PRES   REMARKS
WINSLOW        CLOUDY    46  37  71 SE7       29.85R
SAINT JOHNS    MOCLDY    42  37  82 E5        29.89R
WINDOW ROCK    PTCLDY    33  31  92 CALM      29.89R
SHOW LOW       CLEAR     36  32  87 S12       29.90S WCI  27
$$

AZZ023-301400-
GREATER PHOENIX AREA

CITY           SKY/WX    TMP DP  RH WIND       PRES   REMARKS
PHOENIX        PTCLDY    64  37  36 E10       29.73F
BUCKEYE        CLOUDY    57  36  44 NE6       29.74S
LUKE AFB       PTCLDY    63  41  43 SE2       29.73S
DEER VALLEY    MOCLDY    60  38  43 E3        29.75S
SCOTTSDALE     MOCLDY    63  36  36 S3        29.77S
MESA-FALCON    MOCLDY   N/A N/A N/A E17       29.74
MESA-GATEWAY   PTCLDY    57  39  51 SE10      29.77R
CHANDLER       MOCLDY    59  39  47 E5        29.76
$$

AZZ027-028-301400-
SOUTHWEST MARICOPA COUNTY AND PINAL COUNTY

CITY           SKY/WX    TMP DP  RH WIND       PRES   REMARKS
CASA GRANDE    CLEAR     54  34  47 NE5       29.78S
GILA BEND      FAIR      62  32  32 CALM      29.71S
$$

AZZ503-504-507>509-301400-
SOUTHEAST ARIZONA

CITY           SKY/WX    TMP DP  RH WIND       PRES   REMARKS
TUCSON         CLEAR     55  33  43 SE8       29.84S
DAVIS-MONTHAN  CLEAR     53  34  47 SE12      29.82S
RYAN FIELD     CLEAR     52  32  46 E8        29.83
NOGALES        CLEAR     46  33  60 CALM      29.87S
SIERRA VISTA   CLEAR     50  31  48 CALM      29.90R
DOUGLAS        CLEAR     44  28  53 E6        29.89S
SAFFORD        CLEAR     46  29  51 S6        29.83R
$$

AZZ020-021-025-026-031-301400-
SOUTHWEST ARIZONA

CITY           SKY/WX    TMP DP  RH WIND       PRES   REMARKS
YUMA           CLEAR     63  53  70 SE10      29.69R
$$

CAZ031-033-041-043-047-048-061-301400-
SOUTHERN CALIFORNIA

CITY           SKY/WX    TMP DP  RH WIND       PRES   REMARKS
DOWNTOWN L.A.  CLOUDY    57  50  77 CALM      29.81F
L.A. AIRPORT   CLOUDY    57  48  72 W6        29.82F
SAN DIEGO      CLOUDY    58  50  75 S12       29.86F
BURBANK        CLOUDY    54  49  83 S5        29.80F
ONTARIO        LGT RAIN  54  51  90 W5        29.80F FOG
RIVERSIDE      CLOUDY    55  52  89 CALM      29.81F
PALM SPRINGS   CLEAR     61  47  59 W8        29.68S
EL CENTRO NAS  CLEAR     65  41  41 W20G29    29.72R
IMPERIAL       CLEAR     63  42  46 W23G31    29.69R
BLYTHE         CLEAR     63  46  54 S13       29.67F
NEEDLES        MOCLDY    68  40  35 NW12      29.66R
$$

NVZ020-UTZ003-301400-
SOUTHERN NEVADA-UTAH

CITY           SKY/WX    TMP DP  RH WIND       PRES   REMARKS
LAS VEGAS      LGT RAIN  50  48  93 NW16      29.71R
SALT LAKE CITY PTCLDY    45  40  82 CALM      29.89R
$$

NMZ009-TXZ055-301400-
NEW MEXICO-WEST TEXAS

CITY           SKY/WX    TMP DP  RH WIND       PRES   REMARKS
ALBUQUERQUE    CLOUDY    43  36  76 S7        29.88R
EL PASO        PTCLDY    56  30  37 SW5       29.87R
$$


........................KEY........................
SKY/WX - SKY CONDITION/WEATHER
TMP    - TEMPERATURE IN FAHRENHEIT
DP     - DEW POINT IN FAHRENHEIT
RH     - RELATIVE HUMIDITY IN PERCENT
WIND   - DIRECTION AND SPEED IN MILES PER HOUR (MPH)
VRB    - VARIABLE WIND DIRECTION
PRES   - MEAN SEA LEVEL PRESSURE IN INCHES OF MERCURY
         F - FALLING PRESSURE   R - RISING PRESSURE
         S - STEADY PRESSURE
VSB    - VISIBILITY IN MILES
HX     - HEAT INDEX IN FAHRENHEIT
WCI    - WIND CHILL INDEX IN FAHRENHEIT
TC     - TEMPERATURE IN CELSIUS WHICH IS ALSO KNOWN AS
         TEMPERATURE IN CENTIGRADE
AFB    - AIR FORCE BASE
         LUKE AFB IS LUKE AIR FORCE BASE
         DAVIS-MONTHAN IS DAVIS-MONTHAN AIR FORCE BASE
NAS    - NAVAL AIR STATION
         EL CENTRO NAS IS EL CENTRO NAVAL AIR STATION
N/A    - NOT AVAILABLE




USA.gov is the U.S. government's official web portal to all federal, state and local government web resources and services.